星链-33719 (STARLINK-33719)

导读

STARLINK-33719是美国SpaceX公司星链(Starlink)星座的成员卫星,于2025年4月14日发射。星链项目旨在构建全球低轨宽带互联网星座,为全球尤其是偏远地区提供高速网络服务。 该卫星运行于近地轨道,采用平板设计与霍尔推进系统,具备自主避撞能力,寿命末期会主动离轨坠入大气层烧毁。作为星链大规模组网的组成部分,它进一步扩充了星座覆盖范围,支撑全球互联服务的部署。

Basic Information
目录编号:
63578
目录名称:
STARLINK-33719
国际标识:
2025-076K
轨道中心:
EARTH
卫星名称:
星链-33719
卫星全名:
星链-33719 (STARLINK-33719)
卫星状态:
在轨 (已飞行508 天)
发射日期:
2025-04-14 UTC
国别 :
美国 (US)
星等 :
--
Orbit Information
数据来源 国际轨道数据
星历时间: 2026-09-04T02:03:52+0800
21小时前
查看轨道信息
半长轴: 6861.15km
偏心率: 0.0001859
轨道倾角: 43.003°
近地点辐角 272.744°
升交点赤经 36.017°
平近点角 87.320°
近地点: 481.737km
远地点: 484.289km
周期: 94.266分钟
每日圈数: 15.275921
Detailed Information
固有亮度:
5
最大亮度:
2.5
卫星平台:
Starlink V1.0
覆盖范围:
全球
运营商:
太空探索技术公司
运营商所在国:
美国
制造商(研发单位):
太空探索技术公司
制造商所在国:
美国
使用方式:
暂无
Satellite Introduction
Starlink 计划是 SpaceX 推出的全球卫星互联网项目,通过发射低轨道卫星,为全球尤其是偏远地区提供高速、低延迟的互联网服务。自 2019 年起,Starlink 已部署数千颗卫星,旨在缩小全球数字鸿沟,推动互联网普及。该项目还为军事、航空等行业提供通信支持,带来广泛经济效益。
2D Orbit Map
3D Orbit Map
Orbit Altitude Analysis Chart
Orbit Inclination Analysis Chart
Orbit Comprehensive Analysis Chart
View Comprehensive Chart
Conjunction Data List
Event ID Objects TCA Miss Dist (km) Collision Risk Probability Collision Risk Index (CRI) Action
CDM_260829-023206-357806-733421
2026-08-29T
02:32:46+0000
0.411 km
远距离
2.149932E-4 高风险 0.82
CDM_260829-040606-357806-733421
2026-08-29T
04:06:55+0000
1.706 km
极远距离
2.895034E-6 低风险 0.44
CDM_260906-105606-357806-409121
OBJECT E (64091)
2026-09-06T
10:56:05+0000
2.917 km
极远距离
1.047272E-6 低风险 0.35